contact:dominique.lefevre@mio.osupytheas.fr, maurice.libes@osupytheas.fr, didier.mallarino@osupytheas.fr
Project:EMSO http://www.emso-fr.org/EMSO-France
Depth: 2436.0 m
Title:EMSO Ligure Ouest : Data MII capteur AQUADOPP
Date,Latitude,Longitude,X_East,Y_North,Z_Up,Amplitude_X,Amplitude_Y,Amplitude_Z,Batterie,SoundSpeed,Heading,Pitch,Roll,Pressure,TIS,Speed,Direction
, degrees North, degrees East, m.s-1, m.s-1,m.s-1, 1, 1, 1, Volt, m.s-1, degree, degree, degree, dbar, degree_C, m.s-1, degree
2021-08-13T00:04:03,42.805,6.029,0.0,-0.009,0.025,103.0,102.0,100.0,13.4,1505.2,325.2,-0.8,1.8,2470.59,13.29,0.009,180.0
2021-08-13T00:07:03,42.805,6.029,-0.024,0.013,0.022,103.0,101.0,100.0,13.4,1505.2,325.6,-0.7,1.8,2470.596,13.29,0.027,298.4
2021-08-13T00:10:03,42.805,6.029,0.01,-0.001,0.025,104.0,103.0,101.0,13.4,1505.2,325.6,-0.8,1.8,2470.579,13.29,0.01,95.7
2021-08-13T00:13:03,42.805,6.029,-0.012,-0.008,-0.026,102.0,103.0,100.0,13.4,1505.2,329.4,-0.7,1.8,2470.581,13.29,0.014,236.3
2021-08-13T00:16:03,42.805,6.029,0.006,0.007,-0.01,102.0,102.0,100.0,13.3,1505.2,329.9,-0.8,1.8,2470.586,13.29,0.009,40.6
2021-08-13T00:19:03,42.805,6.029,-0.001,0.0,-0.002,104.0,100.0,101.0,13.4,1505.2,328.3,-0.8,1.8,2470.59,13.29,0.001,270.0
2021-08-13T00:22:03,42.805,6.029,-0.013,0.011,0.019,103.0,103.0,100.0,13.3,1505.2,326.3,-0.7,1.8,2470.581,13.29,0.017,310.2
2021-08-13T00:25:03,42.805,6.029,0.02,0.002,-0.022,102.0,102.0,101.0,13.3,1505.2,328.1,-0.7,1.8,2470.594,13.29,0.02,84.3
2021-08-13T00:28:03,42.805,6.029,0.0,-0.015,0.003,102.0,102.0,101.0,13.4,1505.2,325.8,-0.8,1.9,2470.557,13.29,0.015,180.0
2021-08-13T00:31:03,42.805,6.029,-0.002,0.003,0.003,104.0,104.0,101.0,13.4,1505.2,326.3,-0.7,1.8,2470.572,13.29,0.003,326.3
2021-08-13T00:34:03,42.805,6.029,0.021,-0.008,-0.008,103.0,102.0,102.0,13.4,1505.2,326.7,-0.7,1.8,2470.572,13.29,0.022,110.9
2021-08-13T00:37:03,42.805,6.029,0.01,-0.02,-0.021,101.0,103.0,101.0,13.4,1505.2,329.3,-0.8,1.8,2470.543,13.29,0.022,153.4
2021-08-13T00:40:03,42.805,6.029,-0.007,-0.001,-0.022,103.0,101.0,102.0,13.4,1505.2,329.6,-0.7,1.8,2470.554,13.29,0.007,261.9
2021-08-13T00:43:03,42.805,6.029,-0.016,-0.003,-0.001,102.0,101.0,101.0,13.4,1505.2,325.4,-0.7,1.8,2470.521,13.29,0.016,259.4
2021-08-13T00:46:03,42.805,6.029,0.017,0.006,0.011,100.0,104.0,101.0,13.4,1505.2,327.4,-0.7,1.8,2470.536,13.29,0.018,70.6
2021-08-13T00:49:03,42.805,6.029,0.016,0.0,0.003,103.0,101.0,101.0,13.4,1505.2,328.9,-0.8,1.8,2470.513,13.29,0.016,90.0
2021-08-13T00:52:03,42.805,6.029,-0.014,0.001,0.011,103.0,101.0,100.0,13.4,1505.2,325.7,-0.8,1.8,2470.528,13.29,0.014,274.1
2021-08-13T00:55:03,42.805,6.029,-0.014,0.004,-0.02,102.0,102.0,101.0,13.4,1505.2,326.5,-0.8,1.8,2470.557,13.29,0.014,285.9
2021-08-13T00:58:03,42.805,6.029,-0.024,0.014,0.014,102.0,103.0,101.0,13.3,1505.2,329.1,-0.7,1.9,2470.549,13.29,0.027,300.3
2021-08-13T01:04:03,42.805,6.029,0.0,0.0,-0.004,103.0,103.0,103.0,13.4,1505.2,329.1,-0.8,1.8,2470.55,13.29,0.0,0.0
2021-08-13T01:07:03,42.805,6.029,0.006,-0.02,0.018,103.0,103.0,102.0,13.4,1505.2,329.5,-0.8,1.8,2470.582,13.29,0.02,163.3
2021-08-13T01:10:03,42.805,6.029,0.009,-0.018,0.001,102.0,103.0,101.0,13.4,1505.2,330.9,-0.7,1.8,2470.592,13.29,0.02,153.4
2021-08-13T01:13:03,42.805,6.029,0.005,0.001,-0.005,102.0,102.0,102.0,13.4,1505.2,326.4,-0.8,1.8,2470.566,13.29,0.005,78.7
2021-08-13T01:16:03,42.805,6.029,0.003,0.016,0.029,103.0,102.0,101.0,13.3,1505.2,325.6,-0.8,1.8,2470.548,13.29,0.016,10.6
2021-08-13T01:19:03,42.805,6.029,0.024,-0.013,0.0,101.0,102.0,102.0,13.4,1505.2,328.0,-0.8,1.9,2470.581,13.29,0.027,118.4
2021-08-13T01:22:03,42.805,6.029,-0.004,0.0,-0.002,102.0,101.0,102.0,13.3,1505.2,328.8,-0.7,1.8,2470.557,13.29,0.004,270.0
2021-08-13T01:25:03,42.805,6.029,0.02,0.005,0.001,102.0,102.0,103.0,13.3,1505.2,329.8,-0.7,1.8,2470.583,13.29,0.02,76.0
2021-08-13T01:28:03,42.805,6.029,0.001,0.015,-0.002,102.0,102.0,101.0,13.4,1505.2,327.7,-0.8,1.8,2470.545,13.29,0.015,3.8
2021-08-13T01:31:03,42.805,6.029,0.0,0.007,-0.019,103.0,102.0,100.0,13.3,1505.2,325.4,-0.7,1.8,2470.545,13.29,0.007,0.0
2021-08-13T01:34:03,42.805,6.029,-0.004,0.013,0.016,102.0,103.0,100.0,13.4,1505.2,328.4,-0.7,1.8,2470.544,13.29,0.013,342.9
2021-08-13T01:37:03,42.805,6.029,0.002,0.001,-0.002,102.0,102.0,100.0,13.3,1505.2,329.1,-0.7,1.8,2470.534,13.29,0.002,63.4
2021-08-13T01:40:03,42.805,6.029,0.021,0.004,0.004,101.0,103.0,100.0,13.4,1505.2,330.0,-0.7,1.8,2470.611,13.29,0.021,79.2
2021-08-13T01:43:03,42.805,6.029,-0.009,-0.003,-0.025,102.0,103.0,101.0,13.4,1505.2,330.1,-0.8,1.8,2470.559,13.29,0.009,251.6
2021-08-13T01:46:03,42.805,6.029,0.011,-0.011,-0.001,102.0,103.0,100.0,13.4,1505.2,330.5,-0.8,1.8,2470.577,13.29,0.015,135.0
2021-08-13T01:49:03,42.805,6.029,0.026,-0.009,0.002,105.0,103.0,100.0,13.3,1505.2,329.6,-0.8,1.8,2470.545,13.29,0.027,109.1
2021-08-13T01:52:03,42.805,6.029,0.003,0.0,-0.003,103.0,104.0,100.0,13.4,1505.2,330.1,-0.7,1.8,2470.554,13.29,0.003,90.0
2021-08-13T01:55:03,42.805,6.029,0.004,0.007,0.023,103.0,103.0,101.0,13.4,1505.2,329.6,-0.7,1.8,2470.55,13.29,0.008,29.7
2021-08-13T01:58:03,42.805,6.029,0.01,-0.005,0.0,102.0,102.0,100.0,13.4,1505.2,329.5,-0.7,1.8,2470.596,13.29,0.011,116.6
2021-08-13T02:04:03,42.805,6.029,0.01,0.021,-0.011,104.0,101.0,101.0,13.4,1505.2,325.1,-0.8,1.8,2470.562,13.28,0.023,25.5
2021-08-13T02:07:03,42.805,6.029,-0.005,0.006,-0.013,102.0,101.0,102.0,13.4,1505.2,329.1,-0.8,1.8,2470.601,13.28,0.007,320.2
2021-08-13T02:10:03,42.805,6.029,0.022,-0.012,-0.012,102.0,103.0,101.0,13.4,1505.2,329.6,-0.7,1.8,2470.58,13.28,0.025,118.6
2021-08-13T02:13:03,42.805,6.029,0.005,0.009,-0.004,101.0,103.0,103.0,13.4,1505.2,328.0,-0.8,1.8,2470.566,13.28,0.01,29.1
2021-08-13T02:16:03,42.805,6.029,0.024,0.0,0.01,102.0,103.0,100.0,13.4,1505.2,329.6,-0.8,1.8,2470.545,13.28,0.024,90.0
2021-08-13T02:19:03,42.805,6.029,0.003,0.015,-0.009,102.0,103.0,100.0,13.4,1505.2,329.4,-0.7,1.8,2470.569,13.28,0.015,11.3
2021-08-13T02:22:03,42.805,6.029,-0.011,-0.002,-0.028,102.0,101.0,102.0,13.4,1505.2,329.5,-0.7,1.8,2470.521,13.28,0.011,259.7
2021-08-13T02:25:03,42.805,6.029,-0.015,0.001,-0.017,103.0,102.0,100.0,13.4,1505.2,325.2,-0.7,1.8,2470.558,13.28,0.015,273.8
2021-08-13T02:28:03,42.805,6.029,0.007,-0.009,-0.001,104.0,105.0,100.0,13.3,1505.2,330.8,-0.8,1.8,2470.539,13.28,0.011,142.1
2021-08-13T02:31:03,42.805,6.029,0.025,0.0,0.012,102.0,104.0,101.0,13.3,1505.2,327.9,-0.7,1.8,2470.569,13.28,0.025,90.0
2021-08-13T02:34:03,42.805,6.029,0.008,0.0,-0.028,102.0,103.0,101.0,13.3,1505.2,325.8,-0.7,1.8,2470.559,13.28,0.008,90.0
2021-08-13T02:37:03,42.805,6.029,0.021,-0.001,-0.018,103.0,102.0,101.0,13.4,1505.2,327.5,-0.8,1.8,2470.513,13.28,0.021,92.7
2021-08-13T02:40:03,42.805,6.029,0.001,0.017,-0.014,103.0,102.0,100.0,13.4,1505.2,328.3,-0.8,1.8,2470.54,13.28,0.017,3.4
2021-08-13T02:43:03,42.805,6.029,0.0,0.0,0.008,102.0,102.0,101.0,13.3,1505.2,329.2,-0.7,1.8,2470.518,13.28,0.0,0.0
2021-08-13T02:46:03,42.805,6.029,0.022,-0.018,-0.008,101.0,104.0,101.0,13.3,1505.2,327.4,-0.8,1.8,2470.554,13.28,0.028,129.3
2021-08-13T02:49:03,42.805,6.029,0.04,0.002,0.038,102.0,102.0,100.0,13.4,1505.2,330.8,-0.7,1.8,2470.591,13.28,0.04,87.1
2021-08-13T02:52:03,42.805,6.029,-0.003,0.002,-0.01,102.0,103.0,100.0,13.4,1505.2,327.0,-0.7,1.8,2470.521,13.28,0.003,303.7
2021-08-13T02:55:03,42.805,6.029,-0.002,-0.015,0.022,102.0,102.0,100.0,13.4,1505.2,326.8,-0.8,1.8,2470.515,13.28,0.015,187.6
2021-08-13T02:58:03,42.805,6.029,0.029,-0.019,-0.019,102.0,101.0,101.0,13.4,1505.2,328.6,-0.7,1.8,2470.51,13.28,0.034,123.2
2021-08-13T03:04:03,42.805,6.029,0.006,-0.016,-0.006,102.0,103.0,100.0,13.3,1505.2,329.1,-0.8,1.9,2470.574,13.28,0.017,159.4
2021-08-13T03:07:03,42.805,6.029,0.021,-0.026,-0.016,102.0,103.0,101.0,13.3,1505.2,327.8,-0.8,1.8,2470.572,13.28,0.033,141.1
2021-08-13T03:10:03,42.805,6.029,0.003,0.004,0.019,102.0,101.0,100.0,13.4,1505.2,327.3,-0.7,1.8,2470.58,13.28,0.005,36.9
2021-08-13T03:13:03,42.805,6.029,0.0,-0.004,0.003,102.0,107.0,100.0,13.3,1505.2,328.0,-0.7,1.8,2470.539,13.28,0.004,180.0
2021-08-13T03:16:03,42.805,6.029,0.007,0.005,0.031,102.0,102.0,101.0,13.4,1505.2,325.7,-0.8,1.8,2470.522,13.28,0.008,54.5
2021-08-13T03:19:03,42.805,6.029,0.032,-0.004,0.025,102.0,103.0,100.0,13.4,1505.2,327.0,-0.7,1.8,2470.511,13.28,0.032,97.1
2021-08-13T03:22:03,42.805,6.029,0.046,-0.001,0.041,101.0,102.0,100.0,13.3,1505.2,325.7,-0.7,1.9,2470.538,13.28,0.046,91.2
2021-08-13T03:25:03,42.805,6.029,-0.002,-0.008,-0.023,102.0,102.0,99.0,13.4,1505.2,330.4,-0.7,1.8,2470.524,13.28,0.008,194.0
2021-08-13T03:28:03,42.805,6.029,0.011,-0.003,-0.032,100.0,102.0,102.0,13.4,1505.2,328.1,-0.7,1.9,2470.482,13.28,0.011,105.3
2021-08-13T03:31:03,42.805,6.029,0.008,-0.001,-0.004,102.0,103.0,100.0,13.4,1505.2,325.3,-0.8,1.8,2470.52,13.28,0.008,97.1
2021-08-13T03:34:03,42.805,6.029,0.007,0.003,-0.016,102.0,102.0,101.0,13.4,1505.2,325.3,-0.7,1.8,2470.493,13.28,0.007,66.8
2021-08-13T03:37:03,42.805,6.029,0.0,0.009,0.017,101.0,102.0,101.0,13.4,1505.2,325.0,-0.8,1.8,2470.517,13.28,0.009,0.0
2021-08-13T03:40:03,42.805,6.029,0.025,-0.022,-0.009,101.0,102.0,101.0,13.4,1505.2,328.0,-0.8,1.9,2470.525,13.28,0.033,131.3
2021-08-13T03:43:03,42.805,6.029,0.015,-0.008,0.005,102.0,104.0,101.0,13.4,1505.2,326.6,-0.8,1.8,2470.499,13.28,0.017,118.1
2021-08-13T03:46:03,42.805,6.029,0.006,0.008,-0.015,102.0,103.0,102.0,13.4,1505.2,329.5,-0.8,1.9,2470.516,13.28,0.01,36.9
2021-08-13T03:49:03,42.805,6.029,-0.005,-0.012,-0.021,103.0,102.0,101.0,13.3,1505.2,325.5,-0.8,1.8,2470.506,13.28,0.013,202.6
2021-08-13T03:52:03,42.805,6.029,0.017,-0.024,-0.037,101.0,102.0,101.0,13.4,1505.2,327.9,-0.7,1.8,2470.477,13.28,0.029,144.7
2021-08-13T03:55:03,42.805,6.029,0.019,-0.016,-0.004,101.0,102.0,101.0,13.3,1505.2,329.2,-0.7,1.8,2470.513,13.28,0.024,130.1
2021-08-13T03:58:03,42.805,6.029,0.008,0.015,0.031,101.0,100.0,101.0,13.3,1505.2,328.8,-0.8,1.8,2470.508,13.28,0.017,28.1
2021-08-13T04:04:03,42.805,6.029,0.009,-0.016,-0.013,102.0,102.0,100.0,13.3,1505.2,328.8,-0.8,1.8,2470.529,13.28,0.018,150.6
2021-08-13T04:07:03,42.805,6.029,0.021,-0.005,-0.002,101.0,103.0,101.0,13.4,1505.2,328.5,-0.8,1.8,2470.537,13.28,0.021,103.4
2021-08-13T04:10:03,42.805,6.029,0.022,-0.003,-0.004,103.0,102.0,101.0,13.3,1505.2,329.6,-0.8,1.8,2470.504,13.28,0.022,97.8
2021-08-13T04:13:03,42.805,6.029,0.013,0.006,0.033,102.0,101.0,100.0,13.4,1505.2,330.1,-0.8,1.8,2470.51,13.28,0.014,65.2
2021-08-13T04:16:03,42.805,6.029,0.037,-0.001,-0.007,102.0,102.0,101.0,13.4,1505.2,329.0,-0.8,1.9,2470.54,13.28,0.037,91.5
2021-08-13T04:19:03,42.805,6.029,0.016,-0.012,-0.005,103.0,102.0,101.0,13.4,1505.2,325.7,-0.7,1.8,2470.494,13.28,0.02,126.9
2021-08-13T04:22:03,42.805,6.029,0.019,-0.003,0.003,101.0,103.0,101.0,13.4,1505.2,329.4,-0.8,1.8,2470.53,13.28,0.019,99.0
2021-08-13T04:25:03,42.805,6.029,0.008,-0.011,-0.014,101.0,102.0,101.0,13.4,1505.2,328.8,-0.8,1.8,2470.518,13.28,0.013,144.0
2021-08-13T04:28:03,42.805,6.029,0.028,-0.004,0.01,102.0,102.0,100.0,13.3,1505.2,325.9,-0.7,1.8,2470.512,13.28,0.028,98.1
2021-08-13T04:31:03,42.805,6.029,0.009,-0.028,-0.003,102.0,103.0,101.0,13.4,1505.2,329.5,-0.7,1.9,2470.478,13.28,0.029,162.2
2021-08-13T04:34:03,42.805,6.029,0.011,0.003,0.016,101.0,103.0,100.0,13.3,1505.2,327.3,-0.7,1.8,2470.495,13.28,0.011,74.7
2021-08-13T04:37:03,42.805,6.029,0.036,0.002,-0.005,102.0,103.0,101.0,13.4,1505.2,326.3,-0.7,1.8,2470.487,13.28,0.036,86.8
2021-08-13T04:40:03,42.805,6.029,0.02,-0.02,-0.005,102.0,102.0,101.0,13.4,1505.2,328.8,-0.7,1.8,2470.492,13.28,0.028,135.0
2021-08-13T04:43:03,42.805,6.029,0.016,-0.04,-0.014,102.0,102.0,101.0,13.4,1505.2,329.2,-0.7,1.9,2470.493,13.28,0.043,158.2
2021-08-13T04:46:03,42.805,6.029,0.049,-0.012,-0.003,103.0,103.0,100.0,13.4,1505.2,326.3,-0.7,1.8,2470.461,13.28,0.05,103.8
2021-08-13T04:49:03,42.805,6.029,0.009,-0.012,0.023,103.0,102.0,100.0,13.4,1505.2,328.8,-0.8,1.8,2470.507,13.28,0.015,143.1
2021-08-13T04:52:03,42.805,6.029,0.03,-0.005,-0.03,102.0,102.0,100.0,13.3,1505.2,325.6,-0.8,1.8,2470.47,13.28,0.03,99.5
2021-08-13T04:55:03,42.805,6.029,0.012,0.007,0.028,101.0,103.0,101.0,13.4,1505.2,327.2,-0.8,1.8,2470.443,13.28,0.013,59.7
2021-08-13T04:58:03,42.805,6.029,0.029,0.0,-0.029,102.0,102.0,100.0,13.4,1505.2,326.3,-0.7,1.9,2470.489,13.28,0.028,90.0
2021-08-13T05:04:03,42.805,6.029,0.03,-0.024,0.0,101.0,103.0,101.0,13.4,1505.2,330.6,-0.7,1.8,2470.523,13.28,0.038,128.7
2021-08-13T05:07:03,42.805,6.029,0.016,-0.023,-0.007,102.0,102.0,101.0,13.3,1505.2,328.9,-0.8,1.9,2470.519,13.28,0.028,145.2
2021-08-13T05:10:03,42.805,6.029,0.005,0.002,-0.004,102.0,102.0,101.0,13.4,1505.2,329.6,-0.7,1.8,2470.492,13.28,0.005,68.2
2021-08-13T05:13:03,42.805,6.029,-0.013,-0.006,0.012,102.0,102.0,101.0,13.4,1505.2,326.2,-0.8,1.8,2470.5,13.28,0.014,245.2
2021-08-13T05:16:03,42.805,6.029,0.026,-0.022,-0.016,104.0,103.0,100.0,13.4,1505.2,326.2,-0.7,1.9,2470.455,13.28,0.034,130.2
2021-08-13T05:19:03,42.805,6.029,0.031,-0.019,0.015,101.0,103.0,102.0,13.4,1505.2,326.3,-0.7,1.8,2470.487,13.28,0.036,121.5
2021-08-13T05:22:03,42.805,6.029,0.02,-0.015,-0.016,103.0,102.0,101.0,13.4,1505.2,329.3,-0.8,1.8,2470.475,13.28,0.025,126.9
2021-08-13T05:25:03,42.805,6.029,0.015,-0.008,0.016,103.0,103.0,100.0,13.3,1505.2,326.9,-0.7,1.8,2470.515,13.28,0.017,118.1
2021-08-13T05:28:03,42.805,6.029,0.02,-0.023,-0.004,102.0,102.0,101.0,13.3,1505.2,329.0,-0.7,1.8,2470.459,13.28,0.03,139.0
2021-08-13T05:31:03,42.805,6.029,-0.007,0.004,-0.005,100.0,103.0,101.0,13.4,1505.2,330.1,-0.8,1.8,2470.475,13.28,0.008,299.7
2021-08-13T05:34:03,42.805,6.029,0.042,-0.022,-0.017,102.0,103.0,100.0,13.4,1505.2,328.0,-0.7,1.8,2470.441,13.28,0.047,117.6
2021-08-13T05:37:03,42.805,6.029,0.025,-0.005,0.004,103.0,102.0,100.0,13.4,1505.2,328.2,-0.7,1.8,2470.457,13.28,0.025,101.3
2021-08-13T05:40:03,42.805,6.029,0.024,0.002,0.0,103.0,101.0,100.0,13.4,1505.2,328.9,-0.7,1.8,2470.45,13.28,0.024,85.2
2021-08-13T05:43:03,42.805,6.029,0.024,-0.013,-0.015,103.0,101.0,101.0,13.4,1505.2,329.7,-0.7,1.8,2470.472,13.28,0.027,118.4
2021-08-13T05:46:03,42.805,6.029,0.023,-0.005,-0.013,102.0,104.0,101.0,13.4,1505.2,327.2,-0.7,1.8,2470.456,13.28,0.023,102.3
2021-08-13T05:49:03,42.805,6.029,0.02,-0.004,-0.031,102.0,103.0,100.0,13.3,1505.2,329.9,-0.8,1.8,2470.466,13.28,0.02,101.3
2021-08-13T05:52:03,42.805,6.029,0.014,-0.004,0.014,101.0,103.0,100.0,13.4,1505.2,326.4,-0.8,1.8,2470.465,13.28,0.014,105.9
2021-08-13T05:55:03,42.805,6.029,0.01,-0.004,0.016,100.0,102.0,102.0,13.4,1505.2,327.3,-0.7,1.8,2470.45,13.28,0.01,111.8
2021-08-13T05:58:03,42.805,6.029,0.002,-0.021,-0.012,102.0,102.0,101.0,13.4,1505.2,327.6,-0.8,1.8,2470.443,13.28,0.021,174.6
2021-08-13T06:04:03,42.805,6.029,0.021,-0.018,-0.014,103.0,103.0,100.0,13.4,1505.2,328.3,-0.8,1.8,2470.49,13.28,0.027,130.6
2021-08-13T06:07:03,42.805,6.029,0.002,-0.009,-0.01,103.0,102.0,100.0,13.4,1505.2,328.5,-0.8,1.8,2470.494,13.28,0.009,167.5
2021-08-13T06:10:03,42.805,6.029,0.018,-0.025,-0.024,102.0,102.0,101.0,13.4,1505.2,330.3,-0.8,1.8,2470.488,13.28,0.03,144.2
2021-08-13T06:13:03,42.805,6.029,-0.002,0.0,-0.005,102.0,103.0,100.0,13.3,1505.2,326.3,-0.7,1.8,2470.516,13.28,0.002,270.0
2021-08-13T06:16:03,42.805,6.029,0.014,-0.003,-0.005,102.0,102.0,101.0,13.4,1505.2,330.4,-0.8,1.9,2470.518,13.28,0.014,102.1
2021-08-13T06:19:03,42.805,6.029,0.016,-0.02,-0.017,101.0,104.0,101.0,13.4,1505.2,328.6,-0.8,1.8,2470.527,13.28,0.025,141.3
2021-08-13T06:22:03,42.805,6.029,0.017,-0.008,-0.005,101.0,102.0,102.0,13.4,1505.2,327.4,-0.8,1.8,2470.457,13.28,0.018,115.2
2021-08-13T06:25:03,42.805,6.029,0.015,-0.008,-0.025,102.0,102.0,102.0,13.4,1505.2,326.8,-0.8,1.8,2470.493,13.28,0.017,118.1
2021-08-13T06:28:03,42.805,6.029,0.005,-0.012,-0.018,103.0,103.0,101.0,13.3,1505.2,331.3,-0.8,1.8,2470.486,13.28,0.013,157.4
2021-08-13T06:31:03,42.805,6.029,0.032,0.003,-0.017,101.0,103.0,101.0,13.4,1505.2,327.6,-0.8,1.8,2470.524,13.28,0.032,84.6
2021-08-13T06:34:03,42.805,6.029,0.023,-0.001,-0.011,104.0,102.0,101.0,13.4,1505.2,326.4,-0.7,1.8,2470.48,13.28,0.023,92.5
2021-08-13T06:37:03,42.805,6.029,0.018,-0.01,0.0,103.0,103.0,100.0,13.4,1505.2,325.5,-0.8,1.8,2470.437,13.28,0.02,119.1
2021-08-13T06:40:03,42.805,6.029,0.011,-0.016,-0.021,101.0,103.0,101.0,13.4,1505.2,328.5,-0.7,1.8,2470.513,13.28,0.019,145.5
2021-08-13T06:43:03,42.805,6.029,0.023,-0.007,-0.004,103.0,102.0,100.0,13.3,1505.2,327.0,-0.7,1.8,2470.469,13.28,0.024,106.9
2021-08-13T06:46:03,42.805,6.029,0.014,-0.007,-0.007,101.0,103.0,101.0,13.4,1505.2,327.0,-0.7,1.8,2470.493,13.28,0.015,116.6
2021-08-13T06:49:03,42.805,6.029,0.024,0.001,0.011,102.0,103.0,101.0,13.3,1505.2,328.1,-0.8,1.8,2470.484,13.28,0.024,87.6
2021-08-13T06:52:03,42.805,6.029,0.034,-0.035,-0.021,101.0,104.0,99.0,13.4,1505.2,328.5,-0.7,1.8,2470.502,13.28,0.048,135.8
2021-08-13T06:55:03,42.805,6.029,0.036,-0.002,0.014,103.0,101.0,101.0,13.4,1505.2,325.0,-0.7,1.8,2470.495,13.28,0.036,93.2
2021-08-13T06:58:03,42.805,6.029,0.008,-0.011,0.002,103.0,102.0,100.0,13.4,1505.2,330.9,-0.7,1.8,2470.491,13.28,0.013,144.0
2021-08-13T07:01:03,42.805,6.029,0.025,-0.037,-0.047,102.0,102.0,101.0,13.4,1505.2,328.5,-0.8,1.8,2470.494,13.28,0.044,146.0
2021-08-13T07:04:03,42.805,6.029,-0.001,-0.013,-0.012,102.0,101.0,101.0,13.4,1505.2,330.4,-0.7,1.8,2470.494,13.28,0.013,184.4
2021-08-13T07:07:03,42.805,6.029,0.018,-0.007,-0.023,102.0,102.0,101.0,13.4,1505.2,327.9,-0.7,1.8,2470.47,13.28,0.019,111.2
2021-08-13T07:10:03,42.805,6.029,0.02,-0.014,0.006,103.0,103.0,99.0,13.4,1505.2,327.0,-0.8,1.8,2470.506,13.28,0.024,125.0
2021-08-13T07:13:03,42.805,6.029,0.041,0.002,0.002,103.0,102.0,100.0,13.4,1505.2,327.8,-0.8,1.8,2470.511,13.28,0.041,87.2
2021-08-13T07:16:03,42.805,6.029,0.017,-0.032,0.01,102.0,101.0,101.0,13.4,1505.2,325.7,-0.7,1.8,2470.516,13.28,0.036,152.0
2021-08-13T07:19:03,42.805,6.029,0.004,-0.015,-0.014,102.0,101.0,102.0,13.3,1505.2,327.6,-0.8,1.8,2470.497,13.28,0.015,165.1
2021-08-13T07:22:03,42.805,6.029,0.021,-0.024,0.017,101.0,102.0,101.0,13.4,1505.2,329.6,-0.8,1.9,2470.484,13.28,0.031,138.8
2021-08-13T07:25:03,42.805,6.029,0.033,0.0,0.001,102.0,102.0,100.0,13.4,1505.2,328.8,-0.7,1.9,2470.53,13.28,0.033,90.0
2021-08-13T07:28:03,42.805,6.029,0.024,-0.019,0.007,102.0,103.0,100.0,13.4,1505.2,328.7,-0.8,1.8,2470.542,13.28,0.03,128.4
2021-08-13T07:31:03,42.805,6.029,0.037,-0.005,-0.003,102.0,102.0,101.0,13.3,1505.2,327.5,-0.8,1.8,2470.521,13.28,0.037,97.7
2021-08-13T07:34:03,42.805,6.029,0.01,-0.015,-0.006,102.0,100.0,101.0,13.4,1505.2,325.6,-0.7,1.8,2470.481,13.28,0.018,146.3
2021-08-13T07:37:03,42.805,6.029,0.009,-0.021,0.006,102.0,102.0,100.0,13.4,1505.2,329.2,-0.8,1.8,2470.495,13.28,0.022,156.8
2021-08-13T07:40:03,42.805,6.029,0.001,-0.014,-0.009,101.0,101.0,101.0,13.4,1505.2,326.6,-0.8,1.8,2470.506,13.28,0.014,175.9
2021-08-13T07:43:03,42.805,6.029,0.03,0.005,0.01,102.0,102.0,100.0,13.4,1505.2,325.7,-0.8,1.8,2470.526,13.28,0.03,80.5
2021-08-13T07:46:03,42.805,6.029,-0.005,-0.027,-0.025,102.0,101.0,101.0,13.4,1505.2,326.9,-0.7,1.8,2470.498,13.28,0.027,190.5
2021-08-13T07:49:03,42.805,6.029,0.021,-0.014,-0.002,101.0,103.0,100.0,13.4,1505.2,329.5,-0.7,1.8,2470.538,13.28,0.025,123.7
2021-08-13T07:52:03,42.805,6.029,0.014,0.002,0.009,100.0,101.0,101.0,13.4,1505.2,328.2,-0.8,1.8,2470.522,13.28,0.014,81.9
2021-08-13T07:55:03,42.805,6.029,0.03,-0.011,-0.007,102.0,101.0,100.0,13.4,1505.2,326.5,-0.8,1.8,2470.563,13.28,0.031,110.1
2021-08-13T07:58:03,42.805,6.029,0.036,-0.022,-0.005,102.0,102.0,101.0,13.4,1505.2,328.6,-0.8,1.8,2470.52,13.28,0.042,121.4
2021-08-13T08:04:03,42.805,6.029,0.002,-0.007,-0.037,101.0,102.0,101.0,13.4,1505.2,327.9,-0.8,1.8,2470.574,13.28,0.007,164.1
2021-08-13T08:07:03,42.805,6.029,0.028,-0.009,0.0,103.0,102.0,100.0,13.3,1505.2,326.9,-0.8,1.8,2470.568,13.28,0.029,107.8
2021-08-13T08:10:03,42.805,6.029,0.022,-0.017,-0.014,101.0,101.0,101.0,13.4,1505.2,328.1,-0.7,1.8,2470.596,13.28,0.027,127.7
2021-08-13T08:13:03,42.805,6.029,0.025,-0.01,-0.005,100.0,102.0,102.0,13.4,1505.2,330.8,-0.8,1.8,2470.595,13.28,0.026,111.8
2021-08-13T08:16:03,42.805,6.029,0.021,-0.024,0.021,103.0,101.0,101.0,13.4,1505.2,329.5,-0.8,1.8,2470.572,13.28,0.031,138.8
2021-08-13T08:19:03,42.805,6.029,0.005,-0.014,-0.004,103.0,103.0,99.0,13.4,1505.2,327.7,-0.8,1.8,2470.578,13.28,0.014,160.4
2021-08-13T08:22:03,42.805,6.029,-0.003,-0.008,-0.024,101.0,101.0,101.0,13.3,1505.2,329.1,-0.8,1.8,2470.577,13.28,0.008,200.6
2021-08-13T08:25:03,42.805,6.029,0.044,-0.014,-0.041,101.0,102.0,101.0,13.4,1505.2,325.7,-0.8,1.8,2470.594,13.28,0.046,107.6
2021-08-13T08:28:03,42.805,6.029,0.003,-0.03,-0.035,102.0,103.0,100.0,13.3,1505.2,327.7,-0.8,1.8,2470.558,13.28,0.03,174.3
2021-08-13T08:31:03,42.805,6.029,0.017,-0.036,-0.012,102.0,102.0,100.0,13.4,1505.2,328.8,-0.8,1.8,2470.585,13.28,0.039,154.7
2021-08-13T08:34:03,42.805,6.029,0.026,-0.019,0.013,102.0,103.0,99.0,13.3,1505.2,329.1,-0.7,1.8,2470.586,13.28,0.032,126.2
2021-08-13T08:37:03,42.805,6.029,0.014,-0.018,0.01,101.0,101.0,100.0,13.3,1505.2,329.3,-0.7,1.8,2470.577,13.28,0.022,142.1
2021-08-13T08:40:03,42.805,6.029,0.023,0.0,0.02,101.0,102.0,101.0,13.3,1505.2,325.6,-0.8,1.8,2470.595,13.28,0.023,90.0
2021-08-13T08:43:03,42.805,6.029,0.014,-0.003,-0.018,102.0,102.0,100.0,13.4,1505.2,330.8,-0.8,1.9,2470.58,13.28,0.014,102.1
2021-08-13T08:46:03,42.805,6.029,-0.01,-0.021,-0.007,102.0,100.0,101.0,13.4,1505.2,326.9,-0.7,1.8,2470.613,13.28,0.023,205.5
2021-08-13T08:49:03,42.805,6.029,0.024,-0.015,-0.009,102.0,102.0,100.0,13.4,1505.2,326.0,-0.8,1.8,2470.591,13.28,0.028,122.0
2021-08-13T08:52:03,42.805,6.029,0.011,-0.009,0.002,103.0,102.0,101.0,13.4,1505.2,327.8,-0.7,1.9,2470.593,13.28,0.014,129.3
2021-08-13T08:55:03,42.805,6.029,0.016,0.006,-0.001,102.0,102.0,100.0,13.4,1505.2,328.7,-0.7,1.8,2470.579,13.28,0.017,69.4
2021-08-13T08:58:03,42.805,6.029,0.027,-0.025,0.0,102.0,102.0,102.0,13.4,1505.2,329.1,-0.8,1.9,2470.585,13.28,0.036,132.8
2021-08-13T09:04:03,42.805,6.029,0.039,-0.005,-0.004,103.0,102.0,100.0,13.4,1505.2,326.2,-0.8,1.8,2470.628,13.28,0.039,97.3
2021-08-13T09:07:03,42.805,6.029,0.008,-0.004,-0.003,102.0,101.0,101.0,13.4,1505.2,325.6,-0.7,1.8,2470.635,13.28,0.008,116.6
2021-08-13T09:10:03,42.805,6.029,0.006,0.003,0.006,104.0,104.0,99.0,13.4,1505.2,330.2,-0.7,1.8,2470.621,13.28,0.006,63.4
2021-08-13T09:13:03,42.805,6.029,0.006,-0.013,-0.037,103.0,103.0,99.0,13.4,1505.2,326.1,-0.8,1.8,2470.652,13.28,0.014,155.2
2021-08-13T09:16:03,42.805,6.029,-0.014,-0.014,-0.036,103.0,102.0,102.0,13.4,1505.2,328.9,-0.7,1.8,2470.607,13.28,0.019,225.0
2021-08-13T09:19:03,42.805,6.029,0.002,-0.019,0.006,104.0,101.0,100.0,13.4,1505.2,327.0,-0.8,1.8,2470.585,13.28,0.019,174.0
2021-08-13T09:22:03,42.805,6.029,0.014,-0.013,-0.01,102.0,102.0,100.0,13.4,1505.2,326.7,-0.7,1.8,2470.615,13.28,0.019,132.9
2021-08-13T09:25:03,42.805,6.029,0.015,-0.003,0.016,103.0,103.0,100.0,13.4,1505.2,327.3,-0.7,1.8,2470.644,13.28,0.015,101.3
2021-08-13T09:28:03,42.805,6.029,0.009,0.001,0.0,103.0,102.0,100.0,13.4,1505.2,327.6,-0.7,1.8,2470.606,13.28,0.009,83.7
2021-08-13T09:31:03,42.805,6.029,-0.002,-0.019,-0.018,102.0,103.0,100.0,13.4,1505.2,330.1,-0.8,1.8,2470.623,13.28,0.019,186.0
2021-08-13T09:34:03,42.805,6.029,0.004,-0.028,-0.031,101.0,103.0,100.0,13.4,1505.2,330.3,-0.8,1.9,2470.557,13.28,0.028,171.9
2021-08-13T09:37:03,42.805,6.029,0.012,-0.019,-0.02,104.0,101.0,101.0,13.3,1505.2,327.9,-0.7,1.9,2470.592,13.28,0.022,147.7
2021-08-13T09:40:03,42.805,6.029,0.015,-0.031,-0.008,102.0,102.0,100.0,13.3,1505.2,328.5,-0.7,1.8,2470.627,13.28,0.034,154.2
2021-08-13T09:43:03,42.805,6.029,-0.015,-0.004,-0.002,101.0,102.0,101.0,13.4,1505.2,325.2,-0.8,1.8,2470.588,13.28,0.015,255.1
2021-08-13T09:46:03,42.805,6.029,0.0,-0.01,-0.013,101.0,102.0,101.0,13.3,1505.2,331.2,-0.7,1.8,2470.596,13.28,0.01,180.0
2021-08-13T09:49:03,42.805,6.029,0.018,-0.017,-0.001,101.0,102.0,101.0,13.4,1505.2,329.7,-0.7,1.9,2470.574,13.28,0.024,133.4
2021-08-13T09:52:03,42.805,6.029,0.008,-0.006,0.01,103.0,101.0,102.0,13.3,1505.2,330.4,-0.7,1.8,2470.607,13.28,0.01,126.9
2021-08-13T09:55:03,42.805,6.029,0.021,-0.026,-0.045,101.0,102.0,103.0,13.3,1505.2,325.5,-0.7,1.8,2470.63,13.28,0.033,141.1